Location: Rounton
(54.4000°N, 1.3500°W)
Time: 03:33:18
(UTC+00:00)

ISS - Pass Details

Date: 01 November 2021
Orbit: 417 x 423 km, 51.6° (Epoch: 01 December)

Event Time Altitude Azimuth Distance (km) Brightness Sun altitude
Exits shadow 05:08:59 44° 225° (SW) 596 -3.4 -17.5°
Maximum altitude 05:09:40 53° 181° (S) 521 -3.4 -17.4°
Drops below altitude 10° 05:12:58 10° 104° (ESE) 1,502 0.3 -17.0°
Sets 05:15:05 0° 99° (E) 2,365 1.8 -16.7°
